Weather History for Westfield, MA

Change the Weather History Date:

Sunday, March 3, 2013

  Actual Average Record
Temperature  
Mean Temperature 32 °F -  
Max Temperature 35 °F 38 °F 60 °F (2002)
Min Temperature 28 °F 20 °F 5 °F (2003)
Degree Days  
Heating Degree Days 34    
Moisture  
Dew Point 22 °F    
Average Humidity 68    
Maximum Humidity 73    
Minimum Humidity 59    
Precipitation  
Precipitation 0.00 in - - ()
Sea Level Pressure  
Sea Level Pressure 29.67 in    
Wind  
Wind Speed 9 mph (NW)    
Max Wind Speed 14 mph    
Max Gust Speed 20 mph    
Visibility 10 miles    
Events Snow    
Averages and records for this station are not official NWS values.
T = Trace of Precipitation, MM = Missing Value Source: NWS Daily Summary

Daily Weather History Graph

Daily Weather History Graph

Search for Another Location

Airport:

Trip Planner

Search our weather history database for the weather conditions in past years. The results will help you decide how hot, cold, wet, or windy it might be!

Date:

Astronomy

Mar. 03, 2013 Rise Set
Actual Time 6:22 AM EST 5:43 PM EST
Civil Twilight 5:54 AM EST 6:11 PM EST
Nautical Twilight 5:22 AM EST 6:44 PM EST
Astronomical Twilight 4:49 AM EST 7:16 PM EST
Moon No Moon Rise 9:28 AM EST (3/3)
Length of Visible Light 12h 17m
Length of Day
11h 21m
Waning Gibbous, 64% of the Moon is Illuminated
Mar 3
Waning Gibbous
Mar 4
Last Quarter
Mar 11
New
Mar 19
First Quarter
Mar 27
Full

Hourly Weather History & Observations

Time (EST) Temp. Windchill Dew Point Humidity Pressure Visibility Wind Dir Wind Speed Gust Speed Precip Events Conditions
12:53 AM 32.0 °F 25.6 °F 24.1 °F 73% 29.69 in 10.0 mi WNW 6.9 mph - N/A   Overcast
1:53 AM 32.0 °F 23.0 °F 21.9 °F 66% 29.69 in 10.0 mi NNW 11.5 mph - N/A   Overcast
2:53 AM 30.0 °F 23.2 °F 21.9 °F 72% 29.68 in 10.0 mi WNW 6.9 mph - N/A   Overcast
3:53 AM 30.0 °F 22.4 °F 21.0 °F 69% 29.68 in 10.0 mi West 8.1 mph - N/A   Overcast
4:53 AM 28.9 °F 21.1 °F 21.0 °F 72% 29.68 in 10.0 mi WNW 8.1 mph - N/A   Overcast
5:53 AM 28.9 °F 19.8 °F 19.9 °F 69% 29.68 in 10.0 mi NW 10.4 mph - N/A   Overcast
6:53 AM 28.0 °F 18.1 °F 19.9 °F 72% 29.69 in 10.0 mi NW 11.5 mph - N/A   Overcast
7:53 AM 28.0 °F 18.6 °F 19.0 °F 69% 29.70 in 10.0 mi WNW 10.4 mph - N/A   Overcast
8:53 AM 28.9 °F 18.6 °F 19.9 °F 69% 29.70 in 9.0 mi NW 12.7 mph - 0.00 in Snow Light Snow
9:53 AM 30.9 °F 21.2 °F 19.9 °F 64% 29.68 in 10.0 mi NNW 12.7 mph - N/A   Overcast
10:53 AM 33.1 °F 25.5 °F 21.9 °F 64% 29.67 in 10.0 mi NW 9.2 mph - 0.00 in   Overcast
11:53 AM 35.1 °F 29.3 °F 21.9 °F 59% 29.65 in 10.0 mi West 6.9 mph - N/A   Overcast
12:53 PM 33.1 °F 24.4 °F 23.0 °F 66% 29.64 in 6.0 mi WNW 11.5 mph - 0.00 in Snow Light Snow
1:53 PM 34.0 °F 24.6 °F 24.1 °F 67% 29.63 in 10.0 mi WNW 13.8 mph - 0.00 in   Overcast
1:57 PM 33.8 °F 25.3 °F 24.8 °F 70% 29.61 in 6.0 mi WNW 11.5 mph - N/A   Haze
2:53 PM 35.1 °F 27.9 °F 24.1 °F 64% 29.63 in 10.0 mi NW 9.2 mph - 0.00 in   Overcast
3:53 PM 34.0 °F 25.0 °F 24.1 °F 67% 29.63 in 10.0 mi NW 12.7 mph - 0.00 in   Overcast
4:53 PM 33.1 °F 25.5 °F 23.0 °F 66% 29.65 in 10.0 mi NW 9.2 mph - N/A   Overcast
5:53 PM 32.0 °F 25.6 °F 24.1 °F 73% 29.65 in 10.0 mi NW 6.9 mph - N/A   Overcast
6:53 PM 32.0 °F 24.8 °F 24.1 °F 73% 29.67 in 9.0 mi NW 8.1 mph - 0.00 in Snow Light Snow
7:53 PM 32.0 °F 24.8 °F 21.9 °F 66% 29.67 in 10.0 mi NNW 8.1 mph - N/A   Overcast
8:53 PM 30.9 °F 22.2 °F 19.9 °F 64% 29.69 in 10.0 mi NW 10.4 mph 18.4 mph N/A   Overcast
9:53 PM 30.0 °F 22.4 °F 19.0 °F 64% 29.70 in 10.0 mi NW 8.1 mph - N/A   Overcast
10:53 PM 28.9 °F 19.8 °F 18.0 °F 64% 29.70 in 10.0 mi NNW 10.4 mph 16.1 mph N/A   Overcast
11:53 PM 28.0 °F 18.1 °F 18.0 °F 66% 29.70 in 10.0 mi NNW 11.5 mph 19.6 mph N/A   Overcast